This demonstration page uses our WeatherBlox Daily Observations layout. Learn more.

Left ArrowRight Arrow

34.16533, -84.80231

Hourly Observations for August 8, 2019

Temp ( °F °C ) Dew Point ( °F °C ) Humidity (%) Winds ( mph kmh ) Pressure ( in mb ) Visibility ( mi km ) Precip ( " mm )
12:53 am 00:53 Clear 75 23.9 69 20.6 82 82 Calm 29.91 1013 10 16 0.00 0.00
1:53 am 01:53 Clear 74 23.3 69 20.6 85 85 Calm 29.88 1012 10 16 0.00 0.00
2:53 am 02:53 Clear 75 23.9 68 20 79 79 Calm 29.88 1012 10 16 0.00 0.00
3:53 am 03:53 Clear 72 22.2 68 20 87 87 Calm 29.89 1012 10 16 0.00 0.00
4:53 am 04:53 Partly Cloudy 72 22.2 69 20.6 91 91 Calm 29.89 1012 10 16 0.00 0.00
5:53 am 05:53 Clear 71 21.7 68 20 90 90 Calm 29.91 1013 10 16 0.00 0.00
6:53 am 06:53 Clear 71 21.7 68 20 90 90 Calm 29.91 1013 9 14 0.00 0.00
7:53 am 07:53 Sunny 73 22.8 69 20.6 87 87 Calm 29.94 1014 10 16 0.00 0.00
8:53 am 08:53 Sunny 76 24.4 70 21.1 82 82 Calm 29.93 1014 10 16 0.00 0.00
9:53 am 09:53 Sunny 81 27.2 69 20.6 67 67 Calm 29.94 1014 10 16 0.00 0.00
10:53 am 10:53 Sunny 84 28.9 70 21.1 63 63 NNW 6 9 29.95 1014 10 16 0.00 0.00
12:53 pm 12:53 Sunny 90 32.2 70 21.1 52 52 VRB 7 11 29.94 1014 10 16 0.00 0.00
1:53 pm 13:53 Sunny 91 32.8 68 20 47 47 VRB 5 7 29.92 1013 10 16 0.00 0.00
2:53 pm 14:53 Mostly Cloudy 91 32.8 70 21.1 50 50 VRB 3 6 29.91 1013 10 16 0.00 0.00
3:53 pm 15:53 Mostly Sunny 93 33.9 72 22.2 50 50 VRB 3 6 29.89 1012 10 16 0.00 0.00
4:53 pm 16:53 Mostly Sunny 90 32.2 70 21.1 52 52 Calm 29.88 1012 10 16 0.00 0.00
5:53 pm 17:53 Mostly Sunny 91 32.8 70 21.1 50 50 Calm 29.87 1012 10 16 0.00 0.00
6:53 pm 18:53 Sunny 89 31.7 70 21.1 53 53 Calm 29.88 1012 10 16 0.00 0.00
7:53 pm 19:53 Sunny 86 30 71 21.7 61 61 Calm 29.88 1012 10 16 0.00 0.00
9:53 pm 21:53 Clear 79 26.1 72 22.2 79 79 Calm 29.91 1013 10 16 0.00 0.00
10:53 pm 22:53 Clear 78 25.6 72 22.2 82 82 Calm 29.91 1013 10 16 0.00 0.00
11:53 pm 23:53 Clear 76 24.4 71 21.7 85 85 Calm 29.92 1013 10 16 0.00 0.00

Powered by AerisWeather